Погода в Малягурте

Россия / Удмуртская Республика     57°32′10″N   52°32′44″E
темп.,
°C
ветер,
м/с
пор.,
м/с
влажн.,
%
обл.,
%
осадки,
мм/ч
давл.,
гПа
погр.,
м
19 апреля, пн
пн1901:00−1всв412705 0.0 1032482
04:00−2всв411672 0.0 1033428
07:00−1всв410550 0.0 1034670
10:00+3в58300 0.0 10341383
13:00+5в57280 0.0 10341610
16:00+5в56300 0.0 10331646
19:00+2всв37480 0.0 1034171
22:00−1в27640 0.0 1035134
20 апреля, вт
вт2001:00−2в26660 0.0 1035127
04:00−2в24640 0.0 103674
07:00+1в24510 0.0 1036187
10:00+5юв23315 0.0 10351102
13:00+8юв22280 0.0 10341427
16:00+9юв12280 0.0 10331411
19:00+5вюв22460 0.0 103214
22:00+2юв22580 0.0 103324
21 апреля, ср
ср2101:000юв22590 0.0 103220
04:000вюв23612 0.0 103245
07:00+3юв385193 0.0 1031256
10:00+8ююв5834100 0.0 1030985
13:00+10ююв6931100 0.0 10281268
16:00+11ююв51135100 0.0 10261330
19:00+9ююв51140100 0.0 1026891
22:00+7ююв51347100 0.0 1026948
22 апреля, чт
чт2201:00+6ююз51152100 0.0 10261022
04:00+4ю51395100 0.3 1026839
07:00+3ю51296100 0.4 1026756
10:00+3ююв41196100 1.6 1027731
13:00+3ю51196100 2.4 1027701
16:00+4ю41096100 2.8 1028751
19:00+4ю41097100 0.0 1028797
22:00+4ю41093100 0.1 1028582
23 апреля, пт
пт2301:00+3ю3997100 0.1 1028512
04:00+3ююв3797100 0.1 1029335
07:00+4ююв3797100 0.0 1029307
10:00+5ю3691100 0.1 1030393
13:00+8ююв3482100 0.0 1029603
16:00+9ююв3477100 0.0 1029774
19:00+7юв378688 0.0 1029474
22:00+5ююв269487 0.0 1029267